Weather Roundup
Issued by NWS

Home | Current Version | Previous Version | Text Only | Print | Product List | Glossary On
Versions: 1 2 3 4 5 6 7 8 9 10 11 12 13 14 15 16 17 18 19 20 21 22 23 24 25 26 27 28 29 30 31 32 33 34 35 36 37 38 39 40 41 42 43 44 45 46 47 48 49 50
534
NZUS93 KARX 051110
HRRWXR

CURRENT HOURLY OBSERVATIONS ACROSS
MUCH OF THE UPPER MISSISSIPPI VALLEY
NATIONAL WEATHER SERVICE LA CROSSE WI
600 AM CDT THU MAY 05 2016


...SOUTHEAST MINNESOTA...


CITY           SKY/WX    TMP DP  RH WIND       PRES   REMARKS
ROCHESTER      CLEAR     41  26  55 NW3       30.04R
ROCHESTER/MAYO FAIR      40  32  72 CALM      30.04R
WINONA         CLEAR     36  32  87 CALM      30.05R
AUSTIN         CLEAR     36  30  80 CALM      30.04R
ALBERT LEA     CLOUDY    37  32  81 CALM      30.04R
DODGE CENTER   PTCLDY    36  25  64 CALM      30.03R
PRESTON        CLEAR     41  25  52 CALM      30.04R
OWATONNA       CLOUDY    36  30  80 CALM      30.04R
FARIBAULT      CLOUDY    36  30  80 CALM      30.03R
$$

...ELSEWHERE IN MINNESOTA...


CITY           SKY/WX    TMP DP  RH WIND       PRES   REMARKS
MINNEAPOLIS    CLOUDY    47  27  45 S3        30.04R
INTNL FALLS    CLOUDY    45  28  51 W3        29.95R
DULUTH         LGT RAIN  42  34  73 SW7       30.00F
RED WING       CLOUDY    37  30  75 CALM      30.03R
REDWOOD FALLS  CLEAR     41  30  65 SW3       30.01R
MANKATO        CLOUDY    43  28  56 S7        30.03R
WORTHINGTON    CLEAR     42  33  70 SW5       30.03R
FAIRMONT       CLEAR     39  30  70 S5        30.02R
$$

...SOUTHWEST WISCONSIN...


CITY           SKY/WX    TMP DP  RH WIND       PRES   REMARKS
LA CROSSE      CLEAR     39  32  76 CALM      30.04R
PRAIRIE DU CHI CLEAR     36  32  84 CALM      30.03R HAZE
BOSCOBEL       CLEAR     33  31  92 CALM      30.03R
LONE ROCK      CLEAR     34  31  88 CALM      30.02R
PLATTEVILLE    CLEAR     37  33  87 N3        30.00R
FORT MC COY    PTCLDY    28  27  94 CALM      30.05R
CAMP DOUGLAS   FOG       27  27 100 W3        30.02R VSB 3/4
MAUSTON-NEW LI SUNNY     33  32  94 CALM      30.02R
VIROQUA        FAIR      35  31  87 NW5       30.02R WCI  31
WIS DELLS      CLEAR     36  31  84 CALM      30.01R
$$

...ELSEWHERE IN WISCONSIN...


CITY           SKY/WX    TMP DP  RH WIND       PRES   REMARKS
MILWAUKEE      MOCLDY    41  32  70 N9        29.95R
MADISON        PTCLDY    35  31  85 NW7       30.00R WCI  29
GREEN BAY      CLEAR     34  31  88 N7        30.00R WCI  28
EAU CLAIRE     PTCLDY    32  28  85 CALM      30.03R
BLACK RVR FLS  FAIR      27  27 100 CALM      30.04R
MEDFORD        CLOUDY    31  31 100 CALM      30.02R
WAUSAU         CLOUDY    36  31  82 N6        30.00R WCI  31
WIS RAPIDS     CLEAR     32  29  88 CALM      30.03R
MARSHFIELD     PTCLDY    38  30  73 N3        30.02R
RICE LAKE      CLOUDY    36  32  86 CALM      30.05R
$$

...NORTHEAST IOWA...


CITY           SKY/WX    TMP DP  RH WIND       PRES   REMARKS
WATERLOO       CLEAR     34  31  88 CALM      30.03R
DUBUQUE        CLEAR     40  33  76 NE7       30.00R
DECORAH        CLEAR     37  30  75 CALM      30.03R
MASON CITY     CLEAR     34  29  82 CALM      30.05R
CHARLES CITY   CLEAR     39  27  60 N6        30.04R WCI  35
OELWEIN        CLEAR     39  30  70 N6        30.03S WCI  35
$$

...ELSEWHERE IN IOWA...


CITY           SKY/WX    TMP DP  RH WIND       PRES   REMARKS
DES MOINES     PTCLDY    45  37  73 CALM      30.04R
IOWA CITY      CLEAR     43  32  65 N3        30.02R
FORT DODGE     CLEAR     36  30  80 CALM      30.04S
MARSHALLTOWN   CLEAR     36  29  75 NW5       30.03R WCI  32
CEDAR RAPIDS   CLEAR     37  32  82 NW6       30.01R WCI  32
$$

...NORTHERN ILLINOIS...


CITY           SKY/WX    TMP DP  RH WIND       PRES   REMARKS
CHICAGO-OHARE  PTCLDY    41  33  73 N12       29.93R
CHICAGO-MIDWAY CLOUDY    42  34  73 N15       29.92R
MOLINE         CLEAR     39  35  86 CALM      29.99R
ROCKFORD       CLEAR     40  33  76 N10       29.98R WCI  33
PEORIA         CLEAR     41  34  76 N7        29.96R
$$

NOTE: "FAIR" INDICATES FEW OR NO CLOUDS BELOW 12,000 FEET WITH NO
SIGNIFICANT WEATHER AND/OR OBSTRUCTIONS TO VISIBILITY. WIND
SPEEDS ARE IN MILES-PER-HOUR.




USA.gov is the U.S. government's official web portal to all federal, state and local government web resources and services.